Miscellaneous Local Product
Issued by NWS Hastings, NE

Home | Current Version | Previous Version | Graphics & Text | Print | Product List | Glossary On
Versions: 1 2 3 4 5 6 7 8 9 10 11 12 13 14 15 16 17 18 19 20 21 22 23 24 25 26 27 28 29 30 31 32 33 34 35 36 37 38 39 40 41 42 43 44 45 46 47 48 49 50
000
AXUS43 KGID 261102
MISGRI

GID CWA HOURLY WEATHER ROUNDUP
NATIONAL WEATHER SERVICE HASTINGS NE
500 AM CST FRI DEC 26 2014

NOTE: "FAIR" INDICATES FEW OR NO CLOUDS BELOW 12,000 FEET WITH NO
SIGNIFICANT WEATHER AND/OR OBSTRUCTIONS TO VISIBILITY.

...SOUTH CENTRAL NEBRASKA...

CITY           SKY/WX    TMP DP  RH WIND       PRES   REMARKS
GRAND ISLAND   CLOUDY    28  24  85 N22G28    29.91R WCI  14
HASTINGS       CLOUDY    28  24  85 N17       29.89R WCI  16
KEARNEY        CLOUDY    27  21  80 NW22G28   29.91R WCI  12
ORD            CLOUDY    26  22  84 N22       29.93S WCI  12
YORK           CLOUDY    30  28  93 N20G28    29.87S WCI  18
AURORA         CLOUDY    29  28  94 N21G30    29.88F WCI  16
LEXINGTON      CLOUDY    27  23  83 N21G28    29.93R WCI  14
HOLDREGE       CLOUDY    27  24  87 N18G25    29.89R WCI  14
HEBRON         CLOUDY    32  30  91 N14G24    29.88S WCI  22

...NEBRASKA PANHANDLE...

CITY           SKY/WX    TMP DP  RH WIND       PRES   REMARKS
CHADRON        LGT SNOW  20  17  88 NE6       30.02R FOG     WCI  12
ALLIANCE       CLOUDY    15  13  91 N7        29.96R WCI   5
SCOTTSBLUFF    CLOUDY    17  13  84 CALM      29.98R
SIDNEY         FLURRIES  19  15  84 NE16      29.93R WCI   4

...WESTERN AND NORTH CENTRAL NEBRASKA...

CITY           SKY/WX    TMP DP  RH WIND       PRES   REMARKS
VALENTINE      LGT SNOW  22  19  89 N10       30.02R FOG     WCI  11
AINSWORTH      CLOUDY    23  20  90 N16       29.99R WCI  10
ONEILL         CLOUDY    26  25  95 N16       29.98R WCI  14
BROKEN BOW     CLOUDY    25  22  88 N22G30    29.91F WCI  10
IMPERIAL       CLOUDY    24  19  81 N16       29.94R WCI  11
NORTH PLATTE   CLOUDY    24  20  84 N16       29.93S WCI  11
MCCOOK         CLOUDY    26  21  81 N21G30    29.92F WCI  12

...EASTERN NEBRASKA...

CITY           SKY/WX    TMP DP  RH WIND       PRES   REMARKS
NORFOLK        CLOUDY    29  26  89 N17       29.92R WCI  17
SO SIOUX CITY  CLOUDY    33  30  88 N12       29.91R WCI  24
TEKAMAH        CLOUDY    34  31  88 N21       29.90R WCI  22
COLUMBUS       CLOUDY    30  23  74 N17G25    29.91S WCI  18
ALBION         CLOUDY    28  24  85 N15G21    29.93R WCI  16
OMAHA EPPLEY   CLOUDY    33  31  92 N18G26    29.88R WCI  22
OFFUTT AFB     CLOUDY    33  31  92 N8        29.87R WCI  27
MILLARD        CLOUDY    34  32  90 N15       29.87R WCI  25
LINCOLN        CLOUDY    33  30  88 N17       29.90R WCI  22
NEBRASKA CITY  CLOUDY    32  32 100 N15       29.84R FOG     WCI  22
BEATRICE       CLOUDY    32  32  98 N13G23    29.86R FOG     WCI  23
FALLS CITY     PTCLDY    33  28  81 NW9       29.83R WCI  25

...NORTHERN KANSAS...

CITY           SKY/WX    TMP DP  RH WIND       PRES   REMARKS
GOODLAND       CLOUDY    24  22  91 N22G29    29.87S WCI   9
HILL CITY      CLOUDY    30  24  78 N16       29.91R WCI  19
NORTON         CLOUDY    28  21  74 N14       29.90R WCI  17
PHILLIPSBURG   CLOUDY    32  27  80 N12G18    29.91R WCI  23
BELOIT         CLOUDY    34  30  86 N17       29.87S WCI  23
HAYS           CLOUDY    30  19  64 N21       29.88R WCI  17
RUSSELL        CLOUDY    32  29  88 N17       29.85R WCI  21
CONCORDIA      CLOUDY    33  31  92 N13G23    29.87R WCI  24
SALINA         CLOUDY    34  30  85 N16       29.86R WCI  24
TOPEKA         CLOUDY    45  32  60 S3        29.84R



USA.gov is the U.S. government's official web portal to all federal, state and local government web resources and services.